CAPE
665 719 861 904 865 723 745 475 474 379 243 332 460 333 435 312 518 630 791 526 425 476 524 501 504 593 711 851 956 1008 1035 1109 1241 1401 1361 1285 1495 1642
777 828 763 882 1040 827 697 732 762 707 538 322 450 283 307 306 255 250 214 145 232 380 494 468 527 544 496 455 454 475 531 645 799 924 983 993 990 944
816 914 895 870 1045 1047 798 796 806 699 635 594 425 445 433 428 290 493 292 273 234 170 119 24 212 550 598 518 457 334 387 430 389 493 633 692 691 647
903 788 912 976 908 820 856 891 812 679 610 540 444 577 551 546 642 482 307 304 339 293 161 155 55 85 114 191 329 127 307 259 490 572 559 556 451 333
1121 1110 992 954 897 890 868 897 904 888 773 611 649 671 623 629 593 565 534 388 195 141 255 115 229 301 266 285 264 286 615 823 849 892 842 642 632 604
957 958 930 911 911 909 837 797 795 690 636 598 570 594 668 833 588 616 609 362 303 307 147 304 245 168 224 281 266 117 228 521 800 848 815 804 685 591
572 563 629 607 580 573 714 681 604 577 619 657 641 630 578 604 603 656 514 537 473 533 993 1250 1089 759 587 516 590 598 778 761 681 469 463 604 525 589
0 0 0 0 1 40 33 34 28 165 214 386 584 520 613 535 509 512 469 448 575 561 625 870 878 1200 1039 1245 550 637 754 565 390 475 518 395 105 79
0 0 0 0 0 0 0 0 0 0 0 139 188 234 373 361 333 476 436 507 548 560 378 634 778 533 549 752 234 245 236 214 177 173 249 298 326 254
0 0 0 0 0 0 0 0 0 0 0 0 1 0 7 55 269 383 347 484 255 320 401 203 864 532 671 554 258 274 254 206 195 159 105 123 138 60
0 0 0 0 1 0 0 0 0 0 0 0 1 1 0 0 0 0 2 30 29 19 466 482 325 347 547 373 565 142 163 217 222 196 176 185 166 68
0 0 0 0 0 1 1 5 2 0 0 0 0 0 0 0 0 0 2 7 32 9 280 304 211 569 507 548 255 540 758 267 257 264 314 360 408 418
0 0 0 0 0 0 0 0 0 0 0 0 0 0 0 0 0 0 2 32 50 23 68 507 326 573 294 300 492 673 564 686 734 410 268 325 326 380
0 0 0 0 0 0 0 0 0 0 0 1 0 0 0 0 0 0 2 8 85 139 319 447 194 411 399 252 165 460 599 762 713 800 955 345 400 329
0 0 0 0 0 0 0 0 1 2 5 5 4 10 25 20 6 0 3 2 4 29 57 295 402 436 380 112 114 213 253 377 762 910 976 519 324 288
0 0 0 0 0 0 0 0 0 0 0 0 0 1 1 2 12 21 30 11 6 12 91 101 193 330 93 203 145 103 88 130 512 617 997 852 393 331
0 0 0 0 0 0 0 0 0 0 1 2 2 2 3 2 0 0 0 11 35 31 11 17 131 158 62 102 144 185 122 134 215 414 682 659 862 731
0 0 0 0 0 0 0 0 0 0 0 0 0 0 0 0 0 1 0 0 1 0 14 11 31 27 0 4 43 238 251 256 271 460 748 625 503 873
0 0 0 0 0 0 0 0 0 0 0 0 0 0 0 0 0 0 0 0 0 0 0 0 0 31 7 3 2 13 112 405 721 749 518 343 222 464
0 0 0 0 0 0 0 0 0 0 0 0 0 0 0 0 0 0 0 0 0 0 0 0 0 0 2 7 7 14 17 51 422 679 547 851 449 193
0 0 0 0 0 0 0 0 0 0 0 0 0 0 0 0 0 0 0 0 0 0 0 0 0 0 0 0 7 46 4 27 91 290 760 663 533 395
0 0 0 0 0 0 0 0 0 0 0 0 0 0 0 0 0 0 0 0 0 0 0 0 0 0 0 0 0 0 53 100 155 89 117 229 369 263
0 0 0 0 0 0 0 0 0 0 0 0 0 0 0 0 0 0 0 0 0 0 0 0 0 0 0 0 3 0 0 1 51 58 77 38 71 46
CIN
-21 -37 -22 -17 -15 -11 -10 -15 -11 -18 -25 -126 -129 -170 -176 -189 -176 -145 -124 -150 -90 -126 -126 -99 -117 -113 -100 -81 -68 -49 -51 -50 -36 -20 -13 -6 -5 -2
-12 -10 -35 -23 -9 -8 -17 -10 -5 -5 -22 -38 -106 -165 -47 -40 -16 -130 -158 -155 -223 -166 -103 -90 -70 -44 -44 -68 -106 -116 -118 -103 -79 -67 -50 -33 -16 -10
-9 -7 -23 -19 -10 -6 -6 -11 -5 -11 -8 -26 -38 -98 -42 -44 -28 -155 -55 -28 -72 -20 -47 -300 -144 -65 -47 -57 -54 -45 -94 -92 -111 -128 -103 -87 -71 -60
-11 -6 -29 -32 -34 -34 -20 -5 -7 -8 -7 -16 -28 -42 -26 -25 -25 -27 -43 -42 -22 -27 -30 -49 -54 -13 -27 -37 -55 -145 -90 -41 -23 -28 -33 -29 -39 -133
-8 -3 -5 -3 -4 -6 -5 -3 -4 -2 -1 -4 -10 -7 -11 -11 -15 -22 -30 -39 -47 -22 -8 -59 -46 -22 -24 -39 -187 -179 -29 -28 -33 -27 -26 -24 -31 -32
-14 -7 -8 -9 -15 -24 -18 -6 -5 -4 -4 -2 -9 -14 -23 -35 -16 -34 -47 -37 -44 -33 -67 -47 -52 -80 -71 -52 -56 -32 -28 -34 -39 -27 -27 -30 -29 -23
0 -1 -1 0 0 -3 -6 -8 -7 -6 -2 0 -1 -1 -8 -14 -16 -16 -39 -43 -63 -75 -67 -76 -98 -135 -140 -80 -45 -48 -52 -40 -37 -52 -49 -27 -35 -44
0 0 0 0 -294 -187 -179 -160 -192 -105 -69 -15 -2 -3 -3 -5 -15 -10 -12 -23 -35 -90 -67 -70 -71 -48 -72 -99 -181 -83 -59 -36 -33 -50 -48 -68 -63 -77
0 0 0 0 0 0 0 0 0 0 0 -111 -102 -66 -39 -8 -10 -2 -1 0 -8 -17 -25 -48 -45 -96 -96 -82 -78 -47 -54 -60 -107 -109 -102 -77 -59 -58
0 0 0 0 0 0 0 0 0 0 0 0 0 0 -123 -168 -30 -18 -41 -13 -51 -33 -7 -150 -1 -58 -57 -85 -113 -100 -88 -101 -76 -63 -67 -132 -127 -169
0 0 0 0 0 0 0 0 0 0 0 0 0 -1 0 0 0 0 0 -36 -70 -124 -5 -9 -87 -33 -30 -111 -100 -189 -158 -120 -107 -122 -128 -124 -123 -154
0 0 0 0 0 -1 0 0 0 0 0 0 0 0 0 0 0 0 -1 -6 -3 0 -91 -16 -62 -5 -46 -57 -145 -81 -61 -145 -95 -104 -115 -116 -107 -99
0 0 0 0 0 0 0 0 0 0 0 0 0 0 0 0 0 0 0 0 -25 -30 -171 -16 -67 -4 -47 -132 -59 -21 -37 -32 -23 -107 -113 -97 -92 -83
0 0 0 0 0 0 0 0 0 0 0 0 0 0 0 0 0 0 0 -2 -130 -120 -47 -16 -104 -43 -49 -99 -196 -89 -22 0 -1 -6 -9 -75 -62 -61
0 0 0 0 0 0 0 0 0 0 0 0 0 0 0 0 -1 0 0 0 0 -171 -125 -37 -31 -25 -47 -204 -246 -144 -144 -53 -2 0 0 -45 -61 -51
0 0 0 0 0 0 0 0 0 0 0 0 0 0 0 0 -9 -3 -1 0 0 -252 -122 -124 -88 -48 -225 -156 -214 -292 -258 -204 -24 -11 0 0 -35 -41
0 0 0 0 0 0 0 0 0 0 0 0 0 0 0 0 0 0 -4 -4 0 -170 -176 -290 -137 -140 -248 -226 -200 -138 -191 -150 -72 -16 -1 0 0 -2
0 0 0 0 0 0 0 0 0 0 0 0 0 0 0 0 0 -1 0 0 0 0 0 0 0 -1 0 -126 -316 -116 -77 -63 -12 -4 0 0 -12 -7
0 0 0 0 0 0 0 0 0 0 0 0 0 0 0 0 0 0 0 0 0 0 0 0 0 0 0 0 0 -18 -119 -15 0 0 0 0 -24 -21
0 0 0 0 0 0 0 0 0 0 0 0 0 0 0 0 0 0 0 0 0 0 0 0 0 0 0 0 0 -1 -20 -24 -1 0 0 0 -1 -49
0 0 0 0 0 0 0 0 0 0 0 0 0 0 0 0 0 0 0 0 0 0 0 0 0 0 0 0 0 -1 0 -8 -100 -25 0 0 0 0
0 0 0 0 0 0 0 0 0 0 0 0 0 0 0 0 0 0 0 0 0 0 0 0 0 0 0 0 0 0 -3 -9 -40 -66 -34 0 0 0
0 0 0 0 0 0 0 0 0 0 0 0 0 0 0 0 0 0 0 0 0 0 0 0 0 0 0 0 -6 0 0 -2 0 -1 -15 0 -1 -1
Wind_Speed
3 4 4 4 7 8 5 5 6 4 4 4 6 7 7 3 2 5 6 10 14 11 11 9 7 6 5 3 2 3 4 3 2 2 2 3 4 2
2 3 3 3 4 5 7 7 5 5 5 5 6 6 8 6 5 10 11 9 4 9 13 13 11 6 6 6 5 3 1 2 3 3 4 5 4 4
2 3 3 3 3 5 5 6 8 9 6 4 5 8 7 5 7 10 10 9 9 10 8 nan 16 12 9 7 7 8 8 7 7 7 6 6 6 5
2 3 3 4 3 3 6 7 8 10 9 5 8 9 9 8 7 7 9 10 12 14 18 7 nan nan 11 12 12 13 13 12 12 11 10 9 9 10
5 5 5 8 9 9 9 8 9 9 12 13 12 14 14 14 11 10 9 7 8 8 11 4 3 7 11 16 18 16 16 16 15 16 13 14 14 15
13 13 12 12 13 14 15 15 13 13 14 14 16 16 18 20 19 17 13 15 10 10 8 7 12 13 13 13 14 17 18 17 18 19 18 17 17 16
21 22 23 22 20 20 21 21 21 21 21 19 20 22 22 25 24 25 21 19 14 17 15 16 17 22 22 15 14 11 16 21 22 21 20 21 20 19
nan nan nan nan nan nan nan nan nan 26 25 27 26 26 24 28 31 29 28 28 24 31 27 23 26 20 20 23 23 19 21 19 20 25 25 24 22 nan
nan nan nan nan nan nan nan nan nan nan nan 29 27 27 27 31 34 32 31 31 29 29 34 24 31 25 26 26 25 24 24 26 25 22 22 23 25 26
nan nan nan nan nan nan nan nan nan nan nan nan nan nan nan nan 34 33 31 32 31 33 36 29 34 30 31 29 29 27 27 27 27 26 26 26 26 nan
nan nan nan nan nan nan nan nan nan nan nan nan nan nan nan nan nan nan nan nan nan nan 41 39 34 35 34 30 32 30 28 27 28 29 30 30 31 nan
nan nan nan nan nan nan nan nan nan nan nan nan nan nan nan nan nan nan nan nan nan nan 38 45 39 44 40 41 38 40 40 36 33 31 30 30 35 38
nan nan nan nan nan nan nan nan nan nan nan nan nan nan nan nan nan nan nan nan nan nan nan 46 41 43 44 38 40 43 44 42 43 42 39 36 39 39
nan nan nan nan nan nan nan nan nan nan nan nan nan nan nan nan nan nan nan nan nan 36 37 40 42 40 42 40 36 42 46 48 49 46 46 48 47 43
nan nan nan nan nan nan nan nan nan nan nan nan nan nan nan nan nan nan nan nan nan nan nan 37 40 38 40 39 37 40 43 47 53 52 53 53 53 53
nan nan nan nan nan nan nan nan nan nan nan nan nan nan nan nan nan nan nan nan nan nan nan 38 36 37 nan 35 36 36 nan 42 46 50 51 53 55 57
nan nan nan nan nan nan nan nan nan nan nan nan nan nan nan nan nan nan nan nan nan nan nan nan 36 35 nan 31 30 32 31 36 42 45 49 52 49 48
nan nan nan nan nan nan nan nan nan nan nan nan nan nan nan nan nan nan nan nan nan nan nan nan nan nan nan nan nan 37 35 40 44 44 46 46 46 48
nan nan nan nan nan nan nan nan nan nan nan nan nan nan nan nan nan nan nan nan nan nan nan nan nan nan nan nan nan nan 39 41 42 42 42 43 41 45
nan nan nan nan nan nan nan nan nan nan nan nan nan nan nan nan nan nan nan nan nan nan nan nan nan nan nan nan nan nan nan nan 38 38 38 40 39 39
nan nan nan nan nan nan nan nan nan nan nan nan nan nan nan nan nan nan nan nan nan nan nan nan nan nan nan nan nan nan nan nan nan 33 38 41 40 42
nan nan nan nan nan nan nan nan nan nan nan nan nan nan nan nan nan nan nan nan nan nan nan nan nan nan nan nan nan nan nan 31 38 nan 27 33 42 44
nan nan nan nan nan nan nan nan nan nan nan nan nan nan nan nan nan nan nan nan nan nan nan nan nan nan nan nan nan nan nan nan nan nan nan nan nan nan
Wind_Direction
348 343 342 357 359 8 343 327 322 294 277 266 261 281 337 17 244 312 289 299 287 298 298 296 294 303 316 338 32 81 75 51 39 9 325 315 319 319
342 15 38 16 4 9 7 356 350 326 270 276 273 287 309 332 330 339 333 350 246 277 287 289 288 290 295 303 305 313 349 335 318 317 312 296 285 270
51 5 39 335 339 330 334 336 337 326 344 263 265 263 280 288 298 304 307 311 298 310 325 nan 273 275 275 276 278 278 282 282 289 295 296 297 294 285
40 332 360 306 325 310 308 326 315 321 317 342 290 299 312 290 294 296 297 318 305 304 328 287 nan nan 295 298 289 284 280 280 287 291 296 295 293 286
286 285 292 289 298 293 291 290 292 297 305 304 300 292 294 295 293 292 297 312 317 338 346 30 230 271 300 295 277 274 283 285 289 285 298 299 298 298
258 268 272 272 272 274 278 283 283 283 285 288 290 292 291 293 294 294 297 296 294 298 305 286 259 273 307 303 310 277 276 283 287 288 289 289 291 292
258 258 262 262 266 269 272 272 276 276 274 273 274 276 281 286 291 285 287 286 281 280 273 270 268 262 267 288 291 296 272 279 279 279 283 284 282 284
nan nan nan nan nan nan nan nan nan 271 270 268 269 270 271 275 278 281 280 279 279 283 280 276 271 267 264 267 272 277 276 280 284 277 279 279 277 nan
nan nan nan nan nan nan nan nan nan nan nan 271 269 269 266 269 268 269 274 277 280 278 283 283 285 283 276 274 285 285 285 283 282 284 278 285 290 286
nan nan nan nan nan nan nan nan nan nan nan nan nan nan nan nan 272 269 265 266 265 272 278 272 279 282 280 284 292 291 291 292 292 287 283 282 280 nan
nan nan nan nan nan nan nan nan nan nan nan nan nan nan nan nan nan nan nan nan nan nan 274 269 266 266 272 273 278 291 293 287 283 281 281 282 282 nan
nan nan nan nan nan nan nan nan nan nan nan nan nan nan nan nan nan nan nan nan nan nan 274 274 266 264 258 267 266 265 267 272 273 273 275 277 278 268
nan nan nan nan nan nan nan nan nan nan nan nan nan nan nan nan nan nan nan nan nan nan nan 269 266 267 267 253 257 265 267 266 266 268 274 276 278 281
nan nan nan nan nan nan nan nan nan nan nan nan nan nan nan nan nan nan nan nan nan 272 265 267 266 262 263 263 259 258 262 266 268 267 268 268 274 279
nan nan nan nan nan nan nan nan nan nan nan nan nan nan nan nan nan nan nan nan nan nan nan 268 268 263 265 264 259 259 257 261 266 266 264 267 268 268
nan nan nan nan nan nan nan nan nan nan nan nan nan nan nan nan nan nan nan nan nan nan nan 267 267 266 nan 266 266 264 nan 265 263 267 266 263 264 266
nan nan nan nan nan nan nan nan nan nan nan nan nan nan nan nan nan nan nan nan nan nan nan nan 270 275 nan 272 270 275 280 276 269 261 262 263 263 266
nan nan nan nan nan nan nan nan nan nan nan nan nan nan nan nan nan nan nan nan nan nan nan nan nan nan nan nan nan 282 280 288 278 270 264 261 259 266
nan nan nan nan nan nan nan nan nan nan nan nan nan nan nan nan nan nan nan nan nan nan nan nan nan nan nan nan nan nan 281 285 275 267 264 262 257 255
nan nan nan nan nan nan nan nan nan nan nan nan nan nan nan nan nan nan nan nan nan nan nan nan nan nan nan nan nan nan nan nan 276 271 265 261 260 252
nan nan nan nan nan nan nan nan nan nan nan nan nan nan nan nan nan nan nan nan nan nan nan nan nan nan nan nan nan nan nan nan nan 275 266 261 257 256
nan nan nan nan nan nan nan nan nan nan nan nan nan nan nan nan nan nan nan nan nan nan nan nan nan nan nan nan nan nan nan 273 280 nan 276 268 262 262
nan nan nan nan nan nan nan nan nan nan nan nan nan nan nan nan nan nan nan nan nan nan nan nan nan nan nan nan nan nan nan nan nan nan nan nan nan nan